World > North America > United States > South Carolina > Green Sea

Green Sea, SC Hourly Weather Conditions

Feedback E-mail the Weather

Quick WX

Green Sea, SC Weather Maps

°F °C°F °C
Green Sea Weather Map
UTC Time: 11/30/2022, 02:59
Your Time:

Green Sea, SC Regional Weather

Expires:202211300300;;036117
ASUS42 KCAE 300210
RWRCAE
REGIONAL WEATHER ROUNDUP
NATIONAL WEATHER SERVICE COLUMBIA SC
900 PM EST TUE NOV 29 2022

NOTE: "FAIR" INDICATES FEW OR NO CLOUDS BELOW 12,000 FEET WITH NO
SIGNIFICANT WEATHER AND/OR OBSTRUCTIONS TO VISIBILITY.

NOT ALL STATIONS ARE QUALITY CONTROLLED BY THE NATIONAL 
WEATHER SERVICE. USE DATA WITH CAUTION...ESPECIALLY 
DEWPOINT OBSERVATIONS.


SCZ001>059-115-116-135>137-GAZ040-063>065-077-300300-
...UPSTATE SOUTH CAROLINA...
  
CITY           SKY/WX    TMP DP  RH WIND       PRES   REMARKS
ANDERSON       LGT RAIN  59  46  62 E7        30.10R                  
LIBERTY        CLOUDY    58  44  60 MISG      30.12R                  
SPARTANBURG    CLOUDY    54  43  66 NE3       30.12S                  
CLEMSON        RAIN      56  47  71 N6        30.14R                  
GREENVILLE     CLOUDY    59  43  55 E7        30.12F                  
GREENWOOD      MOCLDY    56  47  71 SE6       30.12F                  
GREER          CLOUDY    54  44  69 N6        30.12S                  
ROCK HILL      MOCLDY    50  45  83 CALM      30.16R                  
CHESTER        CLOUDY    52  48  87 CALM      30.15S                  
LAURENS        MOCLDY    55  45  67 E9        30.10F                  


...CENTRAL SOUTH CAROLINA...
  
CITY           SKY/WX    TMP DP  RH WIND       PRES   REMARKS
COLUMBIA APT   PTCLDY    52  47  83 CALM      30.13R                  
COLUMBIA OWENS PTCLDY    52  47  83 CALM      30.15R                  
MCENTIRE ANGB  MOCLDY    54  51  89 E3        30.12R                  
ORANGEBURG     PTCLDY    54  49  83 SE5       30.13F                  
SUMTER SHAW    PTCLDY    53  48  84 CALM      30.13R                  
AIKEN          CLOUDY    58  48  67 E6        30.13R                  
BARNWELL       CLOUDY    55  48  76 CALM      30.14R                  
MANNING        FAIR      54  54 100 SE5       30.14F                  
CAMDEN         FAIR      54  48  82 CALM      30.15S                  
LANCASTER      CLOUDY    48  46  93 NE3       30.15R                  
WINNSBORO      MOCLDY    55  46  71 CALM      30.14R                  


...EASTERN AND COASTAL SOUTH CAROLINA...
  
CITY           SKY/WX    TMP DP  RH WIND       PRES   REMARKS
MYRTLE BEACH   PTCLDY    60  58  92 E3        30.17S FOG              
N MYRTLE BCH   PTCLDY    56  53  90 E6        30.16S                  
CONWAY         FAIR      52  52 100 CALM      30.17S                  
MARION         FAIR      55  52  88 SE6       30.16F                  
FLORENCE       CLEAR     57  54  89 SE6       30.15F                  
DARLINGTON     CLEAR     54  52  93 SE6       30.16S                  
CHARLESTON APT MOCLDY    57  56  96 CALM      30.15R                  
MOUNT PLEASANT FAIR      57  57 100 CALM      30.15S                  
WALTERBORO     MOCLDY    54  52  94 E5        30.15S                  
BEAUFORT       CLEAR     59  56  89 S3        30.13F                  
HILTON HEAD    CLEAR     63  59  88 CALM      30.14F                  


...EASTERN GEORGIA...
  
CITY           SKY/WX    TMP DP  RH WIND       PRES   REMARKS
AUGUSTA BUSH F MOCLDY    57  49  74 SE5       30.10S                  
AUGUSTA DANIEL MOCLDY    61  48  62 SE6       30.12R                  
THOMSON        CLOUDY    60  49  65 SE5       30.09F                  
WASHINGTON     CLOUDY    60  49  67 SE8       30.09S                  
CLAXTON        FAIR      57  54  88 CALM      30.12S                  
SYLVANIA       PTCLDY    60  51  73 SE3       30.13R                  
STATESBORO     PTCLDY    60  51  72 SE5       30.11F                  
SAVANNAH       CLEAR     62  53  72 SE5       30.13S                  


...SOUTHERN NORTH CAROLINA...
  
CITY           SKY/WX    TMP DP  RH WIND       PRES   REMARKS
CHARLOTTE      MOCLDY    56  46  69 S5        30.16R                  
MONROE         PTCLDY    50  45  83 CALM      30.14F                  
WADESBORO      PTCLDY    45  43  92 CALM      30.16R                  
ROCKINGHAM     PTCLDY    53  49  86 E6        30.16S                  
RUTHERFORDTON  CLOUDY    50  43  76 N5        30.17S                  
ASHEVILLE      RAIN      48  43  82 NW10      30.20R                  

$$
  

SKY/WX - Weather  TMP - Temperature  DP - Dew Point  RH - Humidity
WIND - Wind Direction/Speed PRES - Barometric Pressure VSB - Visibility
WCI - Wind Chill Index E13G22 Wind - East Wind 13 mph/Gusts of 22 mph

Trending Headlines

Trending Entertainment Headlines

Green Sea Radar Loop

Use the map search tool if you want to place a location marker on the radar map...

Green Sea Quick Facts

National Two Day Weather Forecast


E-mail the Green Sea Weather Forecast

Voice your opinion or tell us about page issues...